Temp
22 22 21 21 18 15 17 18 19 20 20 21 21 20 18 19 16 14 18 18 18 17 17 17 16 15 15 15 15 14 14 14 13 13 13 13 13 13 13 13 12 11 12 12 12 14 14 15 14
22 22 21 21 16 16 16 17 19 18 21 21 21 20 19 19 18 18 18 18 17 17 17 16 16 15 15 15 14 14 13 13 12 13 13 13 13 13 12 13 13 11 12 12 11 12 13 15 15
22 21 21 15 14 16 16 17 18 20 21 21 20 20 20 18 18 18 18 17 17 17 17 16 16 15 15 14 14 13 13 12 12 12 12 11 12 12 12 12 12 12 11 11 11 11 12 14 15
22 21 20 17 17 17 18 19 19 20 21 21 21 19 18 18 18 18 18 17 17 17 16 16 16 15 14 13 13 13 13 12 12 11 10 10 9 11 11 11 12 12 11 10 12 12 11 12 15
21 20 16 17 17 18 17 20 19 19 20 21 20 18 18 18 18 18 18 17 17 17 16 16 15 14 14 14 13 12 12 12 11 10 10 10 10 10 11 11 12 12 12 10 11 12 12 12 14
21 19 16 17 17 19 19 21 20 19 20 20 19 17 18 18 18 17 17 17 17 16 16 15 14 14 13 13 12 12 12 11 11 11 10 10 10 10 11 11 10 11 12 11 11 11 12 13 14
19 16 17 17 17 18 20 21 19 19 20 19 19 16 18 18 17 17 17 17 16 15 15 14 13 13 12 12 12 12 12 11 11 11 11 10 10 10 10 10 10 10 12 12 11 11 12 13 13
21 17 18 17 18 18 21 20 22 21 19 20 20 16 17 18 17 17 17 16 15 14 14 13 13 12 12 12 12 11 11 11 10 10 10 10 10 10 10 11 10 10 11 12 11 12 12 13 13
21 16 16 17 18 18 20 20 21 21 20 19 19 19 19 18 17 17 16 15 14 14 13 13 12 12 12 12 11 11 10 10 10 10 9 9 9 9 10 10 10 10 11 12 11 12 12 12 13
19 16 18 18 18 19 20 20 21 20 18 18 18 18 18 18 17 16 16 16 15 14 13 13 12 12 12 11 11 10 10 9 10 10 9 9 9 9 10 10 9 10 11 11 11 12 12 12 13
19 19 18 22 23 22 20 20 21 18 17 18 19 18 17 17 17 16 16 15 14 13 13 13 12 12 12 12 11 10 10 10 10 9 9 9 9 9 9 9 9 10 10 11 11 12 12 12 13
21 22 21 22 23 21 19 21 20 19 21 22 20 19 18 17 17 16 15 14 13 13 13 13 12 12 11 11 11 10 10 9 9 9 8 8 8 9 8 8 9 10 10 11 11 11 12 12 12
20 21 21 22 22 22 22 20 19 19 21 20 19 18 18 17 16 15 14 13 13 13 13 13 12 12 11 11 10 9 9 9 9 9 9 9 8 8 9 9 10 10 10 11 11 11 11 12 12
23 22 21 22 21 21 20 20 20 21 20 19 18 18 18 17 16 15 14 13 13 13 13 13 12 12 12 11 10 9 9 9 10 9 9 9 9 9 10 10 10 10 11 11 11 11 11 12 12
22 22 20 21 20 21 21 20 18 21 19 19 18 18 17 16 15 15 14 13 13 12 12 12 12 12 11 10 10 10 9 10 10 10 10 10 10 10 10 10 11 11 11 11 11 11 11 12 12
21 19 19 20 20 21 21 18 20 21 19 18 17 17 16 15 15 14 13 13 13 12 12 12 12 12 11 11 10 10 10 10 10 10 10 10 11 11 11 11 11 11 11 11 11 12 12 12 12
18 19 19 20 19 20 19 19 19 20 18 17 16 16 15 15 14 14 14 13 13 12 12 12 11 11 11 11 11 10 11 11 11 10 10 11 11 11 11 11 11 12 12 12 12 11 11 11 12
19 19 19 19 21 19 19 18 18 19 17 17 16 16 15 15 15 14 14 13 13 12 12 12 11 11 11 11 11 11 10 11 11 11 11 11 11 11 11 11 11 12 12 12 11 11 11 11 12
20 19 19 19 20 19 18 18 20 18 16 16 16 15 15 15 14 14 14 13 13 13 12 12 12 11 11 11 11 11 11 11 10 10 10 10 10 10 10 10 10 11 11 11 11 11 11 11 12
18 18 17 18 19 18 18 17 16 15 16 17 16 15 15 15 14 14 14 13 13 13 13 12 12 12 11 12 12 11 11 11 10 10 10 10 10 10 10 10 10 11 10 11 11 11 10 11 12
18 18 18 18 19 18 18 16 17 17 16 16 16 17 16 15 15 14 14 13 13 13 13 13 12 12 12 12 12 12 12 11 11 11 10 10 10 10 10 10 10 11 11 11 11 11 12 11 12
18 18 18 18 18 16 18 14 16 16 15 14 15 15 16 15 15 15 14 13 13 13 13 13 12 13 12 12 12 13 12 12 11 10 11 11 11 11 11 11 10 10 10 11 11 11 11 12 12
18 19 18 18 16 16 17 13 15 15 16 14 13 14 17 16 16 15 14 14 13 13 13 13 12 13 12 12 12 13 13 12 12 12 12 12 12 11 11 11 10 11 11 11 11 11 11 12 12
20 19 15 13 13 13 16 14 14 15 16 16 14 14 16 16 15 15 14 14 13 13 13 13 13 13 13 12 13 13 13 12 12 12 13 13 13 12 12 12 11 10 11 11 11 11 11 12 13
18 15 14 13 12 13 15 15 15 17 17 16 15 14 16 16 16 15 14 14 14 13 13 13 13 13 13 13 12 12 13 14 13 12 12 12 13 13 12 12 12 11 11 11 11 11 11 12 12
16 15 14 15 13 15 15 16 17 17 18 18 18 16 15 16 16 16 15 14 14 14 13 13 13 13 13 13 13 13 13 13 13 13 12 12 13 13 13 13 12 12 11 11 11 12 12 12 11
17 16 16 15 15 14 15 16 16 18 16 15 14 14 14 16 16 16 15 14 14 14 14 14 13 13 12 13 13 13 13 13 13 13 12 12 13 13 13 13 13 13 13 12 11 11 11 12 12
19 17 17 13 16 16 15 16 15 17 19 14 12 12 14 16 16 16 15 15 14 14 14 14 13 13 12 12 12 12 13 12 12 13 13 13 13 13 14 14 14 14 13 13 13 12 12 12 12
17 16 14 14 13 13 12 13 14 18 17 15 13 14 16 17 17 17 16 15 15 14 14 14 14 13 13 12 12 12 13 12 12 12 13 13 13 14 14 14 14 14 14 14 14 13 13 13 13
18 16 15 14 15 13 13 15 16 15 15 16 15 15 16 16 18 17 16 15 15 14 14 14 14 14 14 13 13 12 12 12 12 12 12 12 13 13 13 14 14 14 14 14 14 14 13 13 13
Height
1527 1529 1531 1533 1540 1543 1548 1541 1531 1531 1529 1526 1527 1528 1529 1529 1534 1546 1528 1528 1529 1530 1530 1530 1530 1529 1529 1529 1529 1528 1527 1526 1524 1523 1522 1520 1519 1519 1520 1520 1520 1521 1523 1523 1525 1527 1529 1531 1534
1529 1529 1531 1531 1549 1558 1551 1534 1532 1527 1526 1527 1526 1527 1528 1527 1528 1529 1528 1528 1528 1528 1528 1527 1527 1527 1526 1525 1524 1524 1523 1522 1520 1519 1518 1517 1515 1515 1516 1517 1518 1518 1520 1522 1523 1525 1527 1529 1532
1529 1530 1532 1537 1553 1555 1549 1528 1524 1523 1524 1525 1527 1527 1527 1526 1526 1528 1528 1528 1527 1526 1525 1525 1525 1524 1523 1521 1521 1520 1519 1518 1516 1514 1514 1512 1512 1512 1513 1514 1515 1516 1517 1520 1522 1523 1525 1527 1530
1528 1529 1533 1540 1544 1539 1533 1523 1522 1524 1525 1525 1524 1526 1527 1526 1526 1527 1528 1527 1525 1524 1523 1523 1522 1521 1520 1518 1517 1516 1515 1513 1512 1511 1510 1509 1508 1508 1509 1511 1512 1513 1514 1516 1519 1521 1523 1525 1527
1530 1529 1540 1545 1541 1530 1527 1523 1522 1523 1524 1524 1524 1524 1526 1526 1525 1525 1526 1525 1524 1523 1521 1520 1519 1519 1517 1515 1513 1512 1511 1509 1507 1507 1506 1504 1504 1504 1505 1507 1508 1509 1510 1513 1516 1519 1521 1523 1525
1527 1531 1546 1549 1540 1529 1522 1520 1521 1521 1520 1521 1523 1524 1525 1524 1524 1524 1523 1523 1523 1521 1520 1518 1517 1516 1514 1511 1510 1508 1506 1503 1501 1500 1500 1499 1499 1500 1501 1503 1504 1505 1507 1509 1512 1515 1518 1521 1524
1528 1532 1542 1540 1536 1530 1522 1519 1518 1518 1519 1519 1520 1523 1523 1523 1522 1522 1521 1521 1520 1518 1517 1516 1515 1513 1510 1508 1506 1503 1500 1497 1495 1494 1494 1494 1495 1496 1497 1499 1500 1501 1503 1506 1508 1511 1515 1518 1522
1526 1528 1538 1537 1536 1532 1516 1516 1517 1517 1518 1518 1519 1519 1520 1519 1520 1521 1520 1520 1518 1516 1514 1513 1512 1509 1506 1504 1501 1497 1493 1491 1488 1488 1489 1489 1490 1491 1492 1494 1496 1498 1500 1502 1504 1507 1511 1515 1519
1525 1534 1541 1536 1534 1523 1516 1518 1518 1517 1517 1517 1517 1517 1518 1518 1519 1520 1519 1518 1516 1514 1512 1510 1508 1506 1502 1499 1495 1491 1488 1486 1483 1483 1484 1484 1484 1485 1487 1489 1491 1494 1496 1498 1501 1504 1508 1512 1517
1521 1534 1528 1519 1518 1517 1516 1516 1516 1519 1517 1516 1516 1516 1517 1518 1519 1519 1518 1516 1515 1512 1509 1507 1505 1502 1498 1494 1490 1486 1483 1481 1480 1479 1478 1478 1477 1478 1480 1483 1487 1490 1492 1495 1498 1501 1506 1510 1515
1517 1522 1513 1509 1509 1511 1513 1515 1516 1516 1519 1513 1511 1513 1516 1517 1517 1518 1517 1515 1513 1511 1507 1504 1502 1499 1495 1491 1488 1483 1480 1479 1477 1475 1474 1473 1472 1472 1473 1477 1481 1485 1489 1492 1495 1499 1504 1508 1513
1513 1508 1507 1503 1504 1507 1509 1511 1513 1514 1511 1511 1512 1513 1515 1516 1517 1517 1516 1514 1513 1509 1505 1502 1499 1496 1493 1490 1487 1483 1480 1478 1476 1474 1472 1470 1469 1469 1471 1474 1479 1483 1487 1490 1493 1498 1503 1507 1511
1507 1503 1503 1502 1501 1503 1506 1508 1511 1511 1511 1511 1513 1514 1514 1514 1515 1514 1515 1514 1512 1508 1504 1500 1497 1494 1492 1488 1485 1482 1480 1477 1475 1474 1472 1471 1471 1470 1472 1475 1478 1483 1486 1489 1493 1497 1501 1506 1511
1501 1500 1501 1503 1504 1505 1506 1509 1510 1507 1508 1510 1512 1513 1513 1514 1515 1514 1514 1512 1511 1507 1503 1500 1497 1493 1490 1487 1484 1482 1479 1477 1475 1474 1473 1473 1473 1473 1474 1476 1480 1483 1485 1489 1492 1496 1501 1506 1510
1500 1502 1501 1504 1505 1506 1507 1511 1508 1505 1506 1508 1509 1512 1513 1514 1514 1514 1515 1512 1510 1507 1503 1500 1497 1493 1490 1487 1484 1482 1479 1477 1476 1474 1474 1474 1474 1475 1476 1478 1480 1482 1485 1488 1492 1496 1500 1505 1509
1503 1507 1516 1504 1504 1506 1508 1515 1501 1501 1503 1504 1507 1509 1511 1512 1513 1513 1514 1512 1509 1506 1504 1500 1497 1493 1491 1487 1484 1482 1480 1479 1477 1475 1474 1474 1474 1475 1476 1477 1479 1482 1484 1487 1491 1495 1499 1504 1508
1510 1517 1516 1510 1504 1506 1508 1508 1498 1498 1499 1501 1505 1508 1510 1511 1512 1512 1513 1512 1510 1506 1504 1500 1497 1494 1491 1488 1485 1483 1480 1478 1477 1476 1475 1474 1474 1474 1475 1477 1479 1481 1484 1487 1490 1494 1498 1503 1508
1516 1515 1512 1514 1505 1506 1508 1506 1498 1497 1498 1498 1502 1505 1508 1510 1510 1511 1512 1511 1509 1506 1504 1501 1498 1495 1492 1488 1485 1483 1481 1479 1477 1475 1475 1474 1473 1473 1474 1475 1478 1480 1483 1486 1489 1493 1498 1503 1509
1504 1508 1512 1507 1502 1505 1505 1503 1492 1494 1496 1498 1499 1500 1504 1506 1509 1510 1511 1510 1509 1507 1505 1503 1500 1496 1493 1490 1487 1485 1482 1480 1478 1477 1475 1474 1472 1472 1473 1475 1477 1480 1483 1485 1489 1494 1499 1505 1510
1503 1508 1513 1505 1499 1505 1502 1501 1493 1492 1488 1490 1491 1496 1500 1503 1506 1508 1509 1510 1509 1507 1505 1504 1501 1499 1496 1492 1489 1487 1484 1482 1479 1478 1477 1474 1469 1472 1474 1474 1476 1480 1483 1487 1492 1496 1500 1506 1512
1501 1505 1507 1507 1500 1500 1501 1506 1496 1488 1488 1488 1490 1493 1497 1500 1503 1506 1507 1509 1509 1508 1506 1504 1502 1501 1498 1495 1492 1490 1486 1485 1482 1480 1479 1479 1477 1473 1475 1477 1479 1482 1486 1489 1492 1497 1501 1505 1513
1503 1494 1496 1501 1507 1521 1501 1528 1501 1490 1488 1485 1485 1486 1490 1495 1501 1504 1506 1508 1508 1508 1507 1505 1504 1503 1501 1497 1494 1493 1491 1489 1485 1484 1484 1484 1483 1483 1482 1482 1484 1486 1488 1492 1495 1500 1502 1506 1513
1494 1488 1493 1497 1506 1508 1506 1525 1503 1491 1488 1481 1476 1479 1484 1491 1497 1501 1503 1506 1507 1508 1507 1506 1505 1505 1503 1501 1498 1496 1494 1493 1491 1488 1488 1489 1490 1490 1490 1490 1490 1492 1493 1495 1498 1487 1507 1509 1515
1479 1488 1499 1506 1513 1530 1506 1513 1509 1494 1481 1472 1469 1473 1480 1486 1494 1499 1502 1505 1506 1507 1507 1507 1506 1506 1506 1504 1502 1500 1497 1497 1496 1494 1493 1492 1493 1494 1494 1494 1496 1497 1499 1501 1504 1507 1511 1516 1520
1483 1501 1524 1530 1532 1529 1502 1510 1498 1472 1466 1465 1463 1466 1472 1482 1490 1495 1498 1502 1505 1506 1507 1507 1507 1507 1507 1507 1505 1504 1502 1500 1500 1499 1497 1494 1495 1496 1499 1498 1499 1501 1503 1507 1510 1513 1516 1519 1524
1485 1494 1519 1526 1532 1513 1500 1504 1485 1464 1460 1458 1457 1462 1469 1478 1487 1492 1496 1500 1503 1505 1506 1507 1508 1508 1508 1508 1508 1507 1506 1505 1504 1503 1502 1498 1500 1501 1501 1504 1503 1505 1509 1512 1515 1516 1517 1523 1524
1480 1492 1482 1500 1504 1511 1502 1487 1470 1460 1460 1460 1460 1464 1467 1474 1483 1489 1494 1498 1501 1504 1505 1507 1508 1508 1509 1510 1510 1509 1508 1508 1508 1508 1507 1503 1504 1506 1506 1508 1509 1510 1512 1516 1519 1520 1524 1527 1528
1462 1467 1489 1504 1509 1511 1504 1493 1489 1467 1460 1461 1463 1464 1466 1473 1481 1487 1491 1495 1500 1503 1505 1506 1508 1509 1510 1510 1511 1511 1511 1511 1512 1512 1512 1512 1511 1511 1513 1513 1514 1515 1517 1519 1521 1522 1526 1530 1533
1468 1474 1481 1488 1499 1512 1524 1501 1466 1459 1454 1454 1457 1461 1463 1467 1476 1482 1488 1493 1498 1501 1504 1506 1507 1508 1510 1511 1512 1513 1513 1513 1515 1515 1516 1516 1516 1516 1518 1519 1520 1521 1521 1522 1525 1526 1528 1531 1534
1447 1459 1466 1489 1494 1495 1497 1484 1455 1455 1453 1448 1452 1461 1464 1470 1473 1479 1486 1490 1495 1499 1502 1504 1507 1508 1510 1511 1513 1514 1515 1516 1517 1519 1519 1519 1519 1520 1521 1523 1525 1526 1527 1528 1530 1532 1535 1537 1539
Wind_Speed
6 5 1 1 3 4 3 6 1 2 2 2 4 5 7 6 6 5 5 11 10 7 9 12 15 15 15 14 16 17 19 22 22 23 21 20 17 16 14 14 15 14 14 14 14 16 15 13 11
4 3 2 1 4 2 5 4 5 6 3 2 5 6 2 2 3 3 6 6 5 7 11 11 10 11 14 14 14 18 20 21 23 23 23 21 19 18 18 16 16 15 13 14 13 15 15 15 12
4 2 2 4 3 4 5 6 7 4 7 6 3 1 1 2 3 2 4 4 7 9 11 9 9 12 14 14 16 18 19 22 23 25 24 22 21 19 19 17 16 16 14 12 14 14 13 16 14
3 1 3 3 5 6 6 5 5 2 6 8 5 2 2 4 2 0 2 5 8 11 11 11 13 13 13 15 17 20 21 23 25 23 23 22 19 18 20 19 18 17 14 14 15 16 15 16 16
2 1 3 1 5 4 5 5 13 6 2 5 8 3 3 4 2 3 5 6 8 11 12 12 11 11 14 17 18 22 24 27 26 23 22 24 21 19 18 19 20 20 18 14 16 17 18 16 16
3 2 3 3 6 5 5 8 11 7 10 4 4 6 3 5 5 6 7 7 9 10 9 9 9 12 15 18 20 23 26 28 28 27 25 26 22 20 19 17 17 20 20 15 16 18 17 17 16
4 4 4 4 5 5 5 10 8 10 5 5 6 5 4 9 8 8 7 8 10 10 10 10 12 16 17 18 21 26 30 29 27 26 25 26 23 23 22 20 16 17 18 16 18 21 19 20 18
4 5 3 4 5 7 6 10 5 12 7 6 8 5 5 13 10 8 8 10 11 11 11 14 15 16 18 22 26 26 23 24 27 25 21 23 24 24 25 22 21 17 18 19 18 22 22 21 19
5 3 3 5 3 7 4 3 4 8 10 8 9 6 7 12 10 8 8 11 10 11 13 15 17 17 21 23 22 22 21 19 19 20 25 29 29 26 25 24 21 20 18 21 20 22 24 21 20
5 3 7 7 6 6 6 7 12 5 6 3 8 9 12 11 10 8 10 11 11 12 14 15 16 17 19 20 21 21 19 16 12 15 19 20 24 25 28 29 27 25 19 18 21 22 24 22 21
6 5 7 12 15 14 8 6 11 7 4 12 17 18 15 13 10 8 10 10 11 13 14 14 15 14 17 17 18 19 13 11 12 14 11 13 17 19 25 28 24 23 19 19 20 23 24 23 21
3 13 9 12 17 8 7 8 6 16 12 12 15 14 15 13 9 7 7 8 10 13 13 16 14 14 18 16 16 16 11 8 10 7 6 5 6 7 11 15 17 19 18 17 18 21 23 22 22
6 5 3 7 11 14 9 8 5 17 14 8 16 17 15 13 9 5 4 8 12 14 12 14 13 14 16 14 15 13 11 9 5 4 2 3 4 2 7 11 13 14 15 17 19 22 22 22 21
7 6 1 2 4 7 7 2 5 11 12 16 19 19 17 13 7 2 3 8 12 13 12 12 13 14 16 11 13 11 9 9 6 2 1 2 3 3 5 8 11 13 14 17 18 19 20 22 22
1 2 5 2 5 3 4 3 9 12 18 19 22 19 16 12 7 2 4 8 11 11 13 13 13 14 13 11 11 10 8 7 5 1 1 4 4 4 5 8 11 13 14 16 17 17 18 22 22
3 4 3 4 5 3 8 10 6 15 23 23 22 20 17 13 7 2 3 8 10 9 14 14 13 14 13 11 11 8 8 6 5 3 1 3 4 4 7 10 12 13 15 16 17 17 19 20 22
7 3 4 6 9 3 5 9 3 13 28 24 23 21 17 13 9 3 1 6 9 9 13 15 14 14 12 12 10 9 8 7 4 3 3 6 6 7 8 9 11 14 15 16 16 17 19 21 24
4 3 3 4 3 4 3 13 6 9 26 24 24 22 19 15 9 4 1 4 9 8 12 16 14 14 13 11 11 9 9 7 5 3 3 2 2 5 7 10 12 14 15 16 18 19 22 24 27
4 3 5 4 5 5 7 9 16 11 19 15 24 25 22 17 11 7 3 1 7 9 8 13 13 16 16 11 10 10 8 8 6 5 4 6 3 5 7 10 14 13 15 18 21 25 26 29 32
3 3 5 5 3 6 8 10 8 8 13 27 29 29 25 20 15 10 6 1 4 9 5 10 10 13 17 12 10 12 13 10 7 9 11 10 13 12 7 8 12 13 20 22 24 28 32 34 34
5 3 5 7 2 3 1 6 5 5 7 13 21 27 28 24 18 13 9 3 1 8 6 8 9 12 14 12 9 13 14 12 9 12 12 12 13 17 15 16 13 12 22 25 27 30 34 36 35
4 8 6 4 2 5 4 5 6 6 6 7 19 29 30 27 19 14 11 7 2 6 7 6 10 11 10 13 11 14 15 19 15 14 18 19 19 20 21 15 8 17 25 26 29 34 35 38 43
10 3 5 3 4 2 2 2 6 2 6 10 17 30 33 29 23 18 13 8 4 6 6 4 8 9 8 12 14 18 15 16 15 14 9 11 14 14 14 16 20 17 18 27 26 29 37 39 38
3 3 6 4 4 1 7 7 5 5 8 7 5 27 35 32 25 17 12 10 7 6 4 2 6 7 6 8 12 14 16 15 15 15 12 4 6 12 10 11 19 17 16 22 25 21 25 29 28
5 6 4 4 3 6 3 3 8 8 10 9 9 26 36 34 28 22 19 15 11 7 5 1 2 4 4 5 8 12 12 13 13 12 12 7 10 13 14 17 17 18 18 22 27 24 18 22 23
7 9 5 6 3 5 3 5 6 7 8 14 13 20 34 35 30 24 19 16 13 9 7 6 2 2 3 4 7 10 9 9 13 14 14 14 17 18 15 15 17 18 19 19 21 17 13 18 16
5 4 6 4 1 2 3 7 10 4 4 4 11 21 32 37 32 26 21 18 15 12 7 5 5 2 2 2 3 6 6 6 8 12 13 19 19 15 19 15 15 17 21 20 19 17 21 14 15
9 6 2 2 2 4 4 4 6 9 5 5 7 18 31 36 32 26 22 20 17 14 9 7 6 3 4 2 1 4 4 5 6 7 10 14 15 15 14 14 13 13 14 12 16 12 13 17 18
3 3 4 4 4 5 3 6 6 6 9 8 10 24 33 39 35 28 23 19 18 15 13 9 7 5 4 5 2 1 3 5 6 6 8 9 10 11 14 15 15 16 16 19 21 22 21 21 21
7 10 9 5 5 3 4 8 6 7 9 8 11 21 29 36 33 27 24 21 20 18 15 10 9 6 4 4 4 3 3 4 8 8 8 7 10 11 11 14 13 13 13 14 16 20 19 20 22
Wind_Direction
123 127 127 293 45 61 276 264 271 240 295 213 150 170 187 150 164 213 170 184 218 246 239 259 264 255 271 293 293 293 299 300 301 309 306 304 287 269 249 246 252 248 245 247 244 233 232 227 222
141 153 315 97 82 42 274 248 223 218 208 175 126 126 136 215 193 250 202 223 260 288 298 285 274 285 286 279 279 287 291 290 295 300 301 299 293 266 254 246 244 251 245 248 247 238 232 227 217
180 234 341 85 106 202 230 231 210 244 223 192 156 331 217 195 195 241 219 283 292 308 315 304 290 292 288 282 281 283 285 290 294 295 294 286 285 262 250 248 241 246 252 239 246 244 237 225 218
185 120 75 97 226 262 219 248 197 237 216 219 204 179 204 205 137 242 312 293 305 323 313 299 297 281 273 279 276 283 285 285 288 280 278 272 265 254 245 245 245 244 248 236 233 243 233 228 220
205 73 45 9 252 248 257 261 180 186 212 215 195 205 209 161 158 231 274 277 296 292 287 286 266 262 283 282 283 287 290 291 280 270 267 265 257 249 245 247 247 245 247 249 224 230 233 225 219
126 86 43 304 275 277 258 211 180 190 211 210 167 149 206 185 202 237 279 275 287 283 286 282 283 290 296 296 293 291 291 287 279 273 264 266 256 240 242 251 255 245 242 242 237 224 227 221 218
133 102 214 244 271 298 233 198 198 197 205 222 170 145 216 202 224 253 256 287 294 296 297 297 302 307 306 296 291 291 292 289 279 276 271 265 251 244 243 253 251 250 241 232 232 219 220 215 214
207 106 140 241 253 264 220 187 241 185 209 183 187 201 221 209 215 226 269 288 300 301 304 310 312 310 299 297 299 297 295 287 277 272 265 257 255 250 247 248 249 261 241 231 237 217 217 212 209
192 76 218 248 199 250 204 167 206 200 163 191 197 243 246 193 206 236 268 294 298 306 313 319 318 309 304 307 309 303 296 292 277 268 263 262 262 257 252 245 246 253 244 228 222 218 210 207 209
145 139 220 199 199 236 213 195 176 188 159 172 188 196 176 191 209 239 282 305 317 325 334 327 317 312 317 318 320 314 302 293 287 275 271 268 262 258 252 251 248 251 233 230 220 213 205 204 206
190 203 210 236 234 239 210 214 185 165 252 215 204 177 182 200 217 258 298 318 326 339 337 332 326 316 329 328 331 330 318 306 298 296 280 269 261 256 240 240 230 221 218 217 215 204 201 202 201
185 242 229 263 234 181 188 182 205 188 229 259 232 203 193 207 226 270 310 332 340 342 348 343 335 321 325 325 332 344 336 312 309 311 302 281 278 238 219 212 210 211 213 212 204 200 196 198 197
191 261 300 247 193 204 200 205 198 217 247 237 194 194 202 210 224 251 326 343 350 348 348 355 343 340 334 329 336 339 336 337 323 325 19 27 48 138 174 183 192 197 207 201 197 194 194 195 194
227 219 64 159 194 206 167 205 187 238 215 187 195 201 209 212 214 238 322 349 355 354 0 351 346 349 342 342 348 350 344 344 325 276 33 52 84 103 146 171 184 194 192 190 194 194 193 194 194
81 120 38 251 166 232 139 303 237 228 191 194 197 202 202 200 201 285 335 357 1 6 7 360 356 356 350 351 356 355 358 3 12 98 140 147 144 164 187 188 189 183 180 181 185 190 194 194 195
96 53 101 278 157 245 159 263 264 224 193 200 198 198 198 198 208 253 340 360 10 15 12 4 1 5 3 3 0 356 6 354 357 1 217 215 216 205 219 196 187 187 183 184 187 190 196 191 188
11 225 208 310 204 131 174 264 282 213 200 203 198 199 198 198 204 206 319 6 18 21 17 6 359 4 4 7 360 13 18 11 355 332 281 262 264 244 220 204 191 185 188 189 192 188 190 175 180
236 236 231 243 243 185 224 264 256 229 204 206 199 199 200 204 212 197 187 16 29 25 20 14 14 8 2 358 3 14 24 23 19 4 335 321 259 211 194 193 187 179 192 191 185 183 174 175 174
199 203 249 268 243 182 237 252 274 220 211 204 205 200 202 205 202 197 193 27 34 27 23 15 20 22 17 14 23 41 31 19 347 12 23 352 263 195 179 191 195 195 190 189 176 178 165 160 170
166 230 268 275 278 162 272 272 265 187 224 213 209 203 204 197 196 198 196 194 39 35 38 18 22 19 22 24 33 42 26 32 27 54 66 58 74 138 155 172 183 181 158 162 169 170 163 164 170
203 175 233 241 315 240 174 307 299 265 244 220 224 214 209 203 199 197 197 195 93 45 51 33 36 19 25 28 45 54 33 47 58 71 80 72 95 84 84 124 131 156 153 160 162 165 159 165 170
253 217 230 268 39 272 135 271 284 279 274 226 213 209 208 201 201 201 195 196 160 64 56 53 36 20 35 36 48 74 47 57 72 88 79 82 78 78 77 109 150 141 161 150 164 171 174 171 158
232 141 196 228 209 108 271 71 262 351 282 256 216 209 206 202 198 198 195 190 153 101 64 76 33 31 55 54 54 60 64 61 62 76 81 74 77 78 78 62 81 126 133 152 158 148 166 170 155
170 107 49 56 96 57 235 161 278 216 215 256 188 205 206 197 195 198 185 187 162 161 90 66 31 26 54 60 55 55 53 60 76 82 101 98 101 87 62 75 99 106 112 134 148 150 156 161 174
94 71 339 338 8 225 106 99 234 253 242 229 224 197 202 194 192 192 188 191 184 178 168 180 0 15 46 61 65 60 57 56 68 74 67 105 105 134 117 110 109 117 119 129 128 121 148 155 182
180 155 157 230 228 260 136 232 250 228 291 285 268 217 195 188 192 194 192 191 189 180 170 219 260 16 45 61 66 59 70 65 68 66 74 92 126 113 129 139 104 112 129 130 133 137 123 121 154
178 153 197 136 161 60 244 288 312 255 355 29 139 174 185 187 192 195 191 193 193 187 167 213 235 315 190 47 29 43 77 91 78 78 72 79 118 118 124 127 139 125 121 123 146 142 151 126 113
168 161 111 17 197 231 280 286 240 291 288 167 163 178 185 187 192 195 192 195 195 193 193 225 238 276 217 235 25 39 93 132 108 96 94 94 90 99 103 110 105 116 124 144 133 140 147 157 143
124 163 58 124 149 187 236 258 220 239 245 223 194 195 191 187 191 195 192 193 198 200 205 225 236 248 214 220 229 51 111 141 140 121 114 105 114 117 112 112 111 114 103 106 115 115 113 123 136
206 187 168 161 231 213 183 263 247 264 278 213 184 209 198 196 190 194 192 189 197 201 198 209 218 224 199 191 199 212 172 142 163 143 131 112 109 107 106 118 125 124 119 115 124 122 122 124 133